Home > Weather > Bardufoss > Past weeks

Flag for Norway Past Weather in Bardufoss, Norway — Yesterday and Last 2 Weeks

Now
61 °F

Sunny.


Feels Like: 61 °F
Forecast: 52 / 72 °F
Wind: 7 mph from Southwest

Location: Bardufoss

Current Time: May 27, 2016 at 10:23:26 PM

Latest Report: May 27, 2016 at 9:50 PM


Visibility: 10 mi

Pressure: 30.27 "Hg

Humidity: 42%

Dew Point: 37 °F

Location of BardufossLocation

Past Weather in Bardufoss — Graph

°F

Bardufoss Temperature Yesterday

Maximum temperature yesterday: 59 °F (at 5:20 PM)
Minimum temperature yesterday: 39 °F (at 2:50 AM)
Average temperature yesterday: 49 °F

High & Low Weather Summary for the Past Weeks

 TemperatureHumidityPressure
High70 °F (May 27, 4:20 PM)100% (May 19, 11:50 PM)30.33 "Hg (May 19, 11:50 PM)
Low32 °F (May 14, 1:50 AM)26% (May 27, 3:20 PM)29.36 "Hg (May 17, 4:20 AM)
Average46 °F64%29.83 "Hg
* Reported May 12 8:50 PM — May 27 8:50 PM, Bardufoss, Weather by CustomWeather, © 2016

Note: Actual official high and low records may vary slightly from our data, if they occured in-between our weather recording intervals... More about our weather records

Advertising

Bardufoss Weather History for the Previous 24 Hours

Scroll right to see more
 ConditionsComfort  
Time TempWeatherWind HumidityBarometerVisibility
8:50 PM
Fri, May 27
63 °FPassing clouds.8 mph37%30.24 "HgN/A
7:50 PM66 °FSunny.8 mph32%30.24 "Hg10 mi
6:50 PM66 °FSunny.10 mph30%30.24 "Hg10 mi
6:20 PM68 °FPassing clouds.7 mph30%30.24 "HgN/A
5:50 PM68 °FPassing clouds.9 mph28%30.24 "HgN/A
5:20 PM68 °FPassing clouds.12 mph28%30.21 "HgN/A
4:50 PM68 °FPassing clouds.10 mph28%30.21 "HgN/A
4:20 PM70 °FPassing clouds.9 mph27%30.21 "HgN/A
3:50 PM68 °FPassing clouds.10 mph28%30.21 "HgN/A
3:20 PM68 °FPassing clouds.12 mph26%30.21 "HgN/A
2:50 PM68 °FPassing clouds.9 mph28%30.21 "HgN/A
2:20 PM68 °FPassing clouds.9 mph28%30.21 "HgN/A
1:50 PM68 °FPassing clouds.9 mph28%30.21 "HgN/A
1:20 PM68 °FPassing clouds.8 mph28%30.21 "HgN/A
12:50 PM66 °FPassing clouds.7 mph28%30.21 "HgN/A
12:20 PM66 °FPassing clouds.9 mph30%30.24 "HgN/A
11:50 AM66 °FPassing clouds.8 mph28%30.21 "HgN/A
11:20 AM66 °FPassing clouds.7 mph28%30.21 "HgN/A
10:50 AM64 °FPassing clouds.8 mph30%30.21 "HgN/A
10:20 AM64 °FPassing clouds.9 mph30%30.21 "HgN/A
9:50 AM64 °FPassing clouds.6 mph30%30.21 "HgN/A
9:20 AM63 °FSunny.2 mph34%30.21 "Hg10 mi
8:50 AM61 °FSunny.2 mph36%30.21 "Hg10 mi
8:20 AM59 °FPassing clouds.3 mph42%30.24 "HgN/A
7:50 AM55 °FSunny.3 mph51%30.24 "Hg10 mi
7:20 AM55 °FSunny.2 mph51%30.24 "Hg10 mi
6:50 AM52 °FPassing clouds.3 mph58%30.24 "HgN/A
6:20 AM46 °FSunny.3 mph66%30.24 "Hg10 mi
5:50 AM45 °FSunny.2 mph71%30.24 "Hg10 mi
5:20 AM45 °FSunny.No wind71%30.24 "Hg10 mi
4:50 AM43 °FQuite cool.1 mph81%30.24 "HgN/A
4:20 AM39 °FPassing clouds.No wind87%30.24 "HgN/A
3:50 AM37 °FChilly.No wind93%30.24 "HgN/A
3:20 AM37 °FChilly.1 mph93%30.24 "HgN/A
2:50 AM36 °FPassing clouds.1 mph93%30.24 "HgN/A
2:20 AM37 °FChilly.1 mph93%30.24 "HgN/A
1:50 AM37 °FChilly.1 mph93%30.24 "HgN/A
1:20 AM37 °FChilly.1 mph93%30.24 "HgN/A
12:50 AM39 °FChilly.3 mph87%30.24 "HgN/A
12:20 AM41 °FQuite cool.2 mph87%30.24 "HgN/A
11:50 PM
Thu, May 26
43 °FQuite cool.2 mph81%30.24 "HgN/A
11:20 PM46 °FCool.No wind71%30.24 "HgN/A
10:50 PM50 °FSunny.5 mph62%30.24 "Hg10 mi
Weather by CustomWeather, © 2016

See weather overviewHow to use our weather pages